Cosmos 1378 Rocket - Orbit

View from above orbital plane
View from above orbital plane
View from above satellite
View from above satellite

Ground track
Ground track

The orbit data is extracted from the following two-line orbital elements,

1 13272U 82059B   13141.83772624  .00000427  00000-0  48732-4 0  4523
2 13272 082.5114 095.9276 0018316 351.4796 008.6105 14.83641421671277
Epoch (UTC): 21 May 2013 20:06:19
Eccentricity: 0.0018316
inclination: 82.5114°
perigee height: 605 km
apogee height: 630 km
right ascension of ascending node: 95.9276°
argument of perigee: 351.4796°
revolutions per day: 14.83641421
mean anomaly at epoch: 8.6105°
orbit number at epoch: 67127

The dashed part of the orbit path shows where the satellite is in the earth's shadow,  

Developed and maintained by Chris Peat, Heavens-Above GmbH. Please read the updated FAQ before sending e-mail. Imprint. DLR